• In Russia
  • List of Countries
  • For 7 days
  • Water Temperature
  • Satellite Maps
  • Weather Map
  • Weather Widgets
  • user-avatar
    Login

    Hourly Weather Capaclia

    Today, 18 August, Saturday

    Time Temperature Precipitation Wind Pressure Humidity
    00:00 +24°C° 0 mm 3 mps 745 mmHg 60%
    01:00 +24°C° 0 mm 3 mps 745 mmHg 62%
    02:00 +22°C° 0 mm 3 mps 745 mmHg 68%
    03:00 +22°C° 0 mm 3 mps 745 mmHg 69%
    04:00 +21°C° 0 mm 3 mps 746 mmHg 70%
    05:00 +21°C° 0 mm 3 mps 746 mmHg 71%
    06:00 +22°C° 0 mm 3 mps 746 mmHg 68%
    07:00 +24°C° 0 mm 3 mps 746 mmHg 65%
    08:00 +25°C° 0 mm 4 mps 746 mmHg 62%
    09:00 +27°C° 0 mm 3 mps 746 mmHg 57%
    10:00 +28°C° 0 mm 3 mps 746 mmHg 51%
    11:00 +30°C° 0 mm 3 mps 747 mmHg 46%
    12:00 +31°C° 0 mm 3 mps 746 mmHg 40%
    13:00 +34°C° 0 mm 3 mps 746 mmHg 34%
    14:00 +35°C° 0 mm 3 mps 746 mmHg 29%
    15:00 +35°C° 0 mm 2 mps 746 mmHg 28%
    16:00 +35°C° 0 mm 2 mps 746 mmHg 26%
    17:00 +35°C° 0 mm 2 mps 746 mmHg 25%
    18:00 +32°C° 0 mm 2 mps 746 mmHg 29%
    19:00 +31°C° 0 mm 2 mps 747 mmHg 32%
    20:00 +29°C° 0 mm 2 mps 747 mmHg 35%
    21:00 +28°C° 0 mm 3 mps 747 mmHg 39%
    22:00 +28°C° 0 mm 3 mps 747 mmHg 43%
    23:00 +27°C° 0 mm 4 mps 747 mmHg 48%

    Tomorrow, 19 August, Sunday

    Time Temperature Precipitation Wind Pressure Humidity
    00:00 +26°C° 0.1 mm 4 mps 747 mmHg 51%
    01:00 +25°C° 0.1 mm 3 mps 747 mmHg 55%
    02:00 +24°C° 0.1 mm 3 mps 748 mmHg 59%
    03:00 +24°C° 0 mm 3 mps 748 mmHg 62%
    04:00 +22°C° 0 mm 3 mps 747 mmHg 65%
    05:00 +22°C° 0 mm 3 mps 747 mmHg 68%
    06:00 +24°C° 0 mm 3 mps 748 mmHg 64%
    07:00 +26°C° 0 mm 3 mps 748 mmHg 60%
    08:00 +27°C° 0 mm 3 mps 748 mmHg 56%
    09:00 +28°C° 0 mm 3 mps 748 mmHg 50%
    10:00 +30°C° 0 mm 3 mps 748 mmHg 45%
    11:00 +31°C° 0 mm 3 mps 748 mmHg 40%
    12:00 +32°C° 0 mm 2 mps 748 mmHg 37%
    13:00 +34°C° 0 mm 2 mps 748 mmHg 34%
    14:00 +35°C° 0 mm 2 mps 748 mmHg 31%
    15:00 +34°C° 0 mm 2 mps 747 mmHg 32%
    16:00 +34°C° 0 mm 3 mps 747 mmHg 34%
    17:00 +33°C° 0 mm 3 mps 747 mmHg 36%
    18:00 +31°C° 0.1 mm 3 mps 747 mmHg 39%
    19:00 +29°C° 0.1 mm 2 mps 747 mmHg 43%
    20:00 +28°C° 0.1 mm 2 mps 747 mmHg 47%
    21:00 +27°C° 0.5 mm 2 mps 747 mmHg 50%
    22:00 +25°C° 0.5 mm 2 mps 747 mmHg 54%
    23:00 +24°C° 0.5 mm 1 mps 747 mmHg 58%

    Day after tomorrow, 20 August, Monday

    Time Temperature Precipitation Wind Pressure Humidity
    00:00 +24°C° 0.4 mm 2 mps 747 mmHg 62%
    01:00 +23°C° 0.4 mm 2 mps 747 mmHg 67%
    02:00 +23°C° 0.4 mm 2 mps 747 mmHg 71%
    03:00 +23°C° 0 mm 2 mps 747 mmHg 73%
    04:00 +23°C° 0 mm 2 mps 747 mmHg 75%
    05:00 +21°C° 0 mm 2 mps 747 mmHg 77%
    06:00 +23°C° 0 mm 2 mps 747 mmHg 72%
    07:00 +25°C° 0 mm 2 mps 747 mmHg 67%
    08:00 +26°C° 0 mm 2 mps 747 mmHg 63%
    09:00 +27°C° 0 mm 2 mps 747 mmHg 56%
    10:00 +29°C° 0 mm 2 mps 747 mmHg 49%
    11:00 +31°C° 0 mm 2 mps 748 mmHg 41%
    12:00 +31°C° 0 mm 2 mps 747 mmHg 37%
    13:00 +32°C° 0 mm 2 mps 747 mmHg 34%
    14:00 +34°C° 0 mm 2 mps 747 mmHg 30%
    15:00 +34°C° 0 mm 2 mps 747 mmHg 29%
    16:00 +34°C° 0 mm 2 mps 746 mmHg 29%
    17:00 +32°C° 0 mm 2 mps 746 mmHg 29%
    18:00 +30°C° 0 mm 3 mps 746 mmHg 32%
    19:00 +28°C° 0 mm 3 mps 747 mmHg 34%
    20:00 +26°C° 0 mm 3 mps 747 mmHg 37%
    21:00 +25°C° 0.1 mm 3 mps 747 mmHg 38%
    22:00 +24°C° 0.1 mm 2 mps 747 mmHg 39%
    23:00 +23°C° 0.1 mm 2 mps 747 mmHg 40%

    21 August, Tuesday

    Time Temperature Precipitation Wind Pressure Humidity
    00:00 +21°C° 0 mm 2 mps 747 mmHg 42%
    01:00 +22°C° 0 mm 1 mps 747 mmHg 43%
    02:00 +21°C° 0 mm 1 mps 747 mmHg 44%
    03:00 +21°C° 0 mm 1 mps 747 mmHg 45%
    04:00 +21°C° 0 mm 1 mps 747 mmHg 47%
    05:00 +18°C° 0 mm 0 mps 746 mmHg 48%
    06:00 +20°C° 0 mm 0 mps 747 mmHg 43%
    07:00 +24°C° 0 mm 1 mps 747 mmHg 39%
    08:00 +26°C° 0 mm 1 mps 747 mmHg 35%
    09:00 +28°C° 0 mm 1 mps 747 mmHg 31%
    10:00 +30°C° 0 mm 2 mps 747 mmHg 27%
    11:00 +31°C° 0 mm 2 mps 747 mmHg 23%
    12:00 +32°C° 0 mm 2 mps 747 mmHg 22%
    13:00 +34°C° 0 mm 2 mps 747 mmHg 21%
    14:00 +34°C° 0 mm 1 mps 746 mmHg 21%
    15:00 +34°C° 0 mm 1 mps 746 mmHg 21%
    16:00 +33°C° 0 mm 1 mps 746 mmHg 21%
    17:00 +33°C° 0 mm 1 mps 746 mmHg 22%
    18:00 +31°C° 0 mm 1 mps 746 mmHg 25%
    19:00 +29°C° 0 mm 2 mps 746 mmHg 29%
    20:00 +27°C° 0 mm 2 mps 746 mmHg 33%
    21:00 +26°C° 0 mm 2 mps 747 mmHg 35%
    22:00 +25°C° 0 mm 2 mps 747 mmHg 37%
    23:00 +24°C° 0 mm 2 mps 747 mmHg 39%

    22 August, Wednesday

    Time Temperature Precipitation Wind Pressure Humidity
    00:00 +23°C° 0 mm 2 mps 747 mmHg 41%
    01:00 +23°C° 0 mm 2 mps 747 mmHg 44%
    02:00 +21°C° 0 mm 2 mps 747 mmHg 46%
    03:00 +21°C° 0 mm 2 mps 747 mmHg 51%
    04:00 +21°C° 0 mm 2 mps 747 mmHg 57%
    05:00 +21°C° 0 mm 2 mps 747 mmHg 62%
    06:00 +22°C° 0 mm 3 mps 748 mmHg 62%
    07:00 +25°C° 0 mm 4 mps 748 mmHg 61%
    08:00 +26°C° 0 mm 4 mps 748 mmHg 61%
    09:00 +28°C° 0 mm 4 mps 748 mmHg 55%
    10:00 +30°C° 0 mm 4 mps 748 mmHg 49%
    11:00 +33°C° 0 mm 4 mps 749 mmHg 44%
    12:00 +33°C° 0 mm 4 mps 748 mmHg 41%
    13:00 +33°C° 0 mm 4 mps 748 mmHg 39%
    14:00 +34°C° 0 mm 4 mps 748 mmHg 37%
    15:00 +34°C° 0 mm 4 mps 748 mmHg 38%
    16:00 +33°C° 0 mm 4 mps 748 mmHg 39%
    17:00 +33°C° 0 mm 4 mps 748 mmHg 40%
    18:00 +30°C° 0 mm 4 mps 748 mmHg 45%
    19:00 +28°C° 0 mm 4 mps 748 mmHg 50%
    20:00 +27°C° 0 mm 4 mps 749 mmHg 54%
    21:00 +26°C° 0.2 mm 4 mps 749 mmHg 57%
    22:00 +25°C° 0.2 mm 4 mps 749 mmHg 60%
    23:00 +23°C° 0.2 mm 4 mps 749 mmHg 62%

    23 August, Thursday

    Time Temperature Precipitation Wind Pressure Humidity
    00:00 +22°C° 0.2 mm 4 mps 749 mmHg 63%
    01:00 +22°C° 0.2 mm 4 mps 749 mmHg 63%
    02:00 +21°C° 0.2 mm 3 mps 749 mmHg 64%
    03:00 +20°C° 0 mm 3 mps 749 mmHg 63%
    04:00 +20°C° 0 mm 3 mps 749 mmHg 62%
    05:00 +19°C° 0 mm 3 mps 749 mmHg 61%
    06:00 +20°C° 0 mm 3 mps 749 mmHg 57%
    07:00 +22°C° 0 mm 3 mps 750 mmHg 53%
    08:00 +23°C° 0 mm 4 mps 750 mmHg 49%
    09:00 +25°C° 0 mm 4 mps 750 mmHg 45%
    10:00 +27°C° 0 mm 4 mps 750 mmHg 41%
    11:00 +29°C° 0 mm 4 mps 749 mmHg 36%
    12:00 +30°C° 0 mm 4 mps 749 mmHg 35%
    13:00 +30°C° 0 mm 4 mps 749 mmHg 33%
    14:00 +32°C° 0 mm 4 mps 749 mmHg 31%
    15:00 +32°C° 0 mm 4 mps 748 mmHg 30%
    16:00 +32°C° 0 mm 4 mps 748 mmHg 30%
    17:00 +32°C° 0 mm 4 mps 748 mmHg 29%
    18:00 +29°C° 0 mm 3 mps 748 mmHg 32%
    19:00 +27°C° 0 mm 3 mps 748 mmHg 35%
    20:00 +25°C° 0 mm 3 mps 748 mmHg 38%
    21:00 +24°C° 0 mm 3 mps 748 mmHg 39%
    22:00 +22°C° 0 mm 3 mps 748 mmHg 40%
    23:00 +21°C° 0 mm 3 mps 748 mmHg 40%
    Show more